PPADR SBJH-SBTC

Flight info

Callsign PPADR
Flight time 1h 53m
Altitude 37000
Route VUMEV UZ14 DALOX
Aircraft E50P/L-SBDFGRWY/LB2

Departure

Time 2026-05-04 23:01
Airport São Paulo Catarina Executive Airport (SBJH)

Arrival

Time 2026-05-05 00:54
Airport Una-Comandatuba Airport (SBTC)
Time Latitude Longitude Altitude Speed Heading
2026-05-04 22:48 -23.42825 -47.17633 2699 ft 0 kts 188°
2026-05-04 22:56 -23.42822 -47.17633 2696 ft 2 kts 188°
2026-05-04 22:57 -23.42806 -47.17630 2700 ft 2 kts 188°
2026-05-04 22:57 -23.42804 -47.17630 2699 ft 1 kts 188°
2026-05-04 22:57 -23.42810 -47.17620 2696 ft 3 kts 74°
2026-05-04 22:57 -23.42805 -47.17575 2699 ft 7 kts 84°
2026-05-04 22:58 -23.42769 -47.17579 2699 ft 8 kts 284°
2026-05-04 22:58 -23.42763 -47.17651 2699 ft 4 kts 307°
2026-05-04 22:58 -23.42705 -47.17652 2699 ft 13 kts
2026-05-04 22:58 -23.42696 -47.17651 2699 ft 2 kts
2026-05-04 22:59 -23.42674 -47.17649 2699 ft 8 kts
2026-05-04 22:59 -23.42613 -47.17686 2698 ft 15 kts 280°
2026-05-04 22:59 -23.42623 -47.17781 2698 ft 9 kts 312°
2026-05-04 22:59 -23.42606 -47.17759 2698 ft 5 kts 94°
2026-05-04 23:00 -23.42610 -47.17686 2698 ft 35 kts 94°
2026-05-04 23:00 -23.42640 -47.17202 2699 ft 91 kts 94°
2026-05-04 23:00 -23.42683 -47.16369 2783 ft 127 kts 92°
2026-05-04 23:00 -23.42702 -47.15298 3081 ft 154 kts 85°
2026-05-04 23:01 -23.42121 -47.14235 3453 ft 184 kts 44°
2026-05-04 23:01 -23.41068 -47.13372 4072 ft 186 kts 47°
2026-05-04 23:01 -23.40223 -47.12338 4855 ft 183 kts 60°
2026-05-04 23:01 -23.39619 -47.11114 5468 ft 185 kts 68°
2026-05-04 23:02 -23.39067 -47.09847 6009 ft 188 kts 66°
2026-05-04 23:02 -23.38488 -47.08535 6484 ft 196 kts 64°
2026-05-04 23:02 -23.37887 -47.07179 6982 ft 201 kts 64°
2026-05-04 23:02 -23.37277 -47.05803 7502 ft 203 kts 64°
2026-05-04 23:03 -23.36809 -47.04754 7885 ft 206 kts 63°
2026-05-04 23:03 -23.36181 -47.03340 8388 ft 209 kts 63°
2026-05-04 23:03 -23.35543 -47.01906 8916 ft 212 kts 63°
2026-05-04 23:03 -23.34895 -47.00449 9427 ft 215 kts 63°
2026-05-04 23:04 -23.34228 -46.98952 9922 ft 219 kts 62°
2026-05-04 23:04 -23.33561 -46.97454 10385 ft 222 kts 62°
2026-05-04 23:04 -23.32881 -46.95927 10832 ft 225 kts 62°
2026-05-04 23:04 -23.32194 -46.94388 11293 ft 227 kts 63°
2026-05-04 23:05 -23.31500 -46.92828 11743 ft 230 kts 62°
2026-05-04 23:05 -23.30802 -46.91260 12204 ft 232 kts 63°
2026-05-04 23:05 -23.30094 -46.89676 12664 ft 234 kts 63°
2026-05-04 23:05 -23.29380 -46.88080 13120 ft 236 kts 63°
2026-05-04 23:06 -23.28661 -46.86467 13585 ft 238 kts 63°
2026-05-04 23:06 -23.27936 -46.84840 14053 ft 240 kts 63°
2026-05-04 23:06 -23.27203 -46.83200 14447 ft 242 kts 63°
2026-05-04 23:06 -23.26460 -46.81539 14840 ft 246 kts 63°
2026-05-04 23:07 -23.25709 -46.79859 15331 ft 248 kts 63°
2026-05-04 23:07 -23.24950 -46.78159 15795 ft 252 kts 63°
2026-05-04 23:07 -23.24177 -46.76432 16275 ft 256 kts 63°
2026-05-04 23:07 -23.23394 -46.74684 16768 ft 260 kts 63°
2026-05-04 23:08 -23.22597 -46.72902 17256 ft 264 kts 63°
2026-05-04 23:08 -23.21791 -46.71100 17781 ft 267 kts 63°
2026-05-04 23:08 -23.20974 -46.69276 18296 ft 270 kts 63°
2026-05-04 23:08 -23.20145 -46.67430 18774 ft 274 kts 63°
2026-05-04 23:09 -23.19307 -46.65559 19243 ft 277 kts 63°
2026-05-04 23:09 -23.18460 -46.63669 19722 ft 280 kts 62°
2026-05-04 23:09 -23.17601 -46.61756 20186 ft 283 kts 62°
2026-05-04 23:09 -23.16722 -46.59796 20681 ft 287 kts 62°
2026-05-04 23:10 -23.15841 -46.57836 21183 ft 290 kts 62°
2026-05-04 23:10 -23.14954 -46.55860 21689 ft 293 kts 62°
2026-05-04 23:10 -23.14055 -46.53859 22193 ft 297 kts 62°
2026-05-04 23:10 -23.13144 -46.51834 22695 ft 301 kts 62°
2026-05-04 23:11 -23.12221 -46.49780 23239 ft 304 kts 61°
2026-05-04 23:11 -23.11289 -46.47709 23760 ft 307 kts 61°
2026-05-04 23:11 -23.10345 -46.45612 24210 ft 310 kts 61°
2026-05-04 23:11 -23.09393 -46.43500 24666 ft 313 kts 60°
2026-05-04 23:12 -23.08434 -46.41370 25123 ft 315 kts 60°
2026-05-04 23:12 -23.07467 -46.39224 25583 ft 318 kts 60°
2026-05-04 23:12 -23.06491 -46.37060 26032 ft 320 kts 60°
2026-05-04 23:12 -23.05507 -46.34879 26492 ft 323 kts 59°
2026-05-04 23:13 -23.04511 -46.32674 26964 ft 326 kts 59°
2026-05-04 23:13 -23.03511 -46.30456 27423 ft 329 kts 59°
2026-05-04 23:13 -23.02500 -46.28220 27879 ft 332 kts 59°
2026-05-04 23:13 -23.01479 -46.25962 28350 ft 334 kts 59°
2026-05-04 23:14 -23.00438 -46.23659 28827 ft 337 kts 59°
2026-05-04 23:14 -22.99401 -46.21366 29300 ft 340 kts 59°
2026-05-04 23:14 -22.98354 -46.19052 29779 ft 343 kts 58°
2026-05-04 23:14 -22.97296 -46.16717 30258 ft 346 kts 58°
2026-05-04 23:15 -22.96231 -46.14366 30645 ft 349 kts 58°
2026-05-04 23:15 -22.95158 -46.12000 31091 ft 348 kts 58°
2026-05-04 23:15 -22.94093 -46.09644 31541 ft 348 kts 58°
2026-05-04 23:15 -22.93025 -46.07292 31963 ft 348 kts 58°
2026-05-04 23:16 -22.91954 -46.04937 32381 ft 348 kts 58°
2026-05-04 23:16 -22.90886 -46.02584 32791 ft 347 kts 58°
2026-05-04 23:16 -22.89819 -46.00235 33163 ft 347 kts 57°
2026-05-04 23:16 -22.88551 -45.98058 33483 ft 339 kts 43°
2026-05-04 23:17 -22.86935 -45.96259 33834 ft 328 kts 30°
2026-05-04 23:17 -22.85148 -45.94750 34120 ft 326 kts 27°
2026-05-04 23:17 -22.83359 -45.93239 34431 ft 326 kts 28°
2026-05-04 23:17 -22.81574 -45.91721 34764 ft 326 kts 28°
2026-05-04 23:18 -22.79788 -45.90215 35084 ft 326 kts 28°
2026-05-04 23:18 -22.77996 -45.88708 35386 ft 326 kts 28°
2026-05-04 23:18 -22.76209 -45.87200 35713 ft 326 kts 28°
2026-05-04 23:18 -22.74419 -45.85687 36030 ft 326 kts 28°
2026-05-04 23:19 -22.72626 -45.84176 36360 ft 326 kts 28°
2026-05-04 23:19 -22.70841 -45.82669 36702 ft 325 kts 28°
2026-05-04 23:19 -22.69055 -45.81165 37023 ft 325 kts 28°
2026-05-04 23:19 -22.67213 -45.79620 37059 ft 336 kts 28°
2026-05-04 23:20 -22.65360 -45.78066 37065 ft 347 kts 29°
2026-05-04 23:20 -22.63413 -45.76420 37194 ft 353 kts 29°
2026-05-04 23:20 -22.59442 -45.73080 37220 ft 371 kts 30°
2026-05-04 23:21 -22.55283 -45.69580 37219 ft 386 kts 30°
2026-05-04 23:21 -22.50968 -45.65956 37218 ft 398 kts 30°
2026-05-04 23:22 -22.46549 -45.62244 37225 ft 406 kts 31°
2026-05-04 23:22 -22.42043 -45.58466 37224 ft 414 kts 31°
2026-05-04 23:23 -22.37463 -45.54627 37215 ft 418 kts 31°
2026-05-04 23:23 -22.32850 -45.50765 37219 ft 422 kts 31°
2026-05-04 23:24 -22.28194 -45.46869 37216 ft 425 kts 31°
2026-05-04 23:24 -22.23512 -45.42956 37210 ft 427 kts 31°
2026-05-04 23:25 -22.18814 -45.39033 37223 ft 427 kts 31°
2026-05-04 23:25 -22.14113 -45.35111 37216 ft 426 kts 31°
2026-05-04 23:26 -22.09423 -45.31201 37210 ft 426 kts 31°
2026-05-04 23:26 -22.04727 -45.27292 37215 ft 427 kts 31°
2026-05-04 23:27 -22.00016 -45.23370 37223 ft 429 kts 31°
2026-05-04 23:27 -21.95258 -45.19414 37227 ft 430 kts 31°
2026-05-04 23:28 -21.90517 -45.15476 37211 ft 431 kts 31°
2026-05-04 23:28 -21.85769 -45.11535 37217 ft 431 kts 31°
2026-05-04 23:29 -21.81817 -45.08257 37227 ft 432 kts 31°
2026-05-04 23:29 -21.77042 -45.04301 37232 ft 434 kts 31°
2026-05-04 23:30 -21.72257 -45.00338 37236 ft 435 kts 31°
2026-05-04 23:30 -21.67428 -44.96345 37236 ft 440 kts 32°
2026-05-04 23:31 -21.62532 -44.92296 37238 ft 442 kts 32°
2026-05-04 23:31 -21.57652 -44.88268 37238 ft 443 kts 32°
2026-05-04 23:32 -21.52758 -44.84228 37241 ft 444 kts 32°
2026-05-04 23:32 -21.47859 -44.80190 37239 ft 444 kts 32°
2026-05-04 23:33 -21.42959 -44.76154 37240 ft 444 kts 32°
2026-05-04 23:33 -21.38051 -44.72116 37236 ft 445 kts 32°
2026-05-04 23:34 -21.33144 -44.68080 37237 ft 444 kts 32°
2026-05-04 23:34 -21.28235 -44.64049 37242 ft 445 kts 32°
2026-05-04 23:35 -21.23320 -44.60014 37246 ft 445 kts 32°
2026-05-04 23:35 -21.18411 -44.55988 37240 ft 445 kts 32°
2026-05-04 23:36 -21.13499 -44.51963 37237 ft 444 kts 32°
2026-05-04 23:36 -21.08588 -44.47943 37239 ft 444 kts 32°
2026-05-04 23:37 -21.03678 -44.43926 37244 ft 444 kts 32°
2026-05-04 23:37 -20.98768 -44.39913 37246 ft 444 kts 32°
2026-05-04 23:38 -20.93860 -44.35905 37237 ft 444 kts 32°
2026-05-04 23:38 -20.88949 -44.31898 37250 ft 444 kts 32°
2026-05-04 23:39 -20.84010 -44.27872 37244 ft 444 kts 32°
2026-05-04 23:39 -20.79102 -44.23874 37237 ft 443 kts 32°
2026-05-04 23:40 -20.74201 -44.19886 37242 ft 443 kts 32°
2026-05-04 23:40 -20.69302 -44.15902 37246 ft 443 kts 32°
2026-05-04 23:41 -20.64401 -44.11920 37239 ft 442 kts 32°
2026-05-04 23:41 -20.59505 -44.07944 37242 ft 442 kts 32°
2026-05-04 23:42 -20.54612 -44.03976 37242 ft 442 kts 32°
2026-05-04 23:42 -20.49726 -44.00016 37252 ft 441 kts 32°
2026-05-04 23:43 -20.44836 -43.96056 37244 ft 441 kts 32°
2026-05-04 23:43 -20.39944 -43.92097 37247 ft 442 kts 32°
2026-05-04 23:44 -20.35043 -43.88136 37248 ft 442 kts 32°
2026-05-04 23:44 -20.30146 -43.84179 37248 ft 442 kts 32°
2026-05-04 23:45 -20.25255 -43.80231 37246 ft 441 kts 32°
2026-05-04 23:45 -20.20366 -43.76289 37249 ft 441 kts 32°
2026-05-04 23:46 -20.15477 -43.72348 37254 ft 441 kts 32°
2026-05-04 23:46 -20.10554 -43.68384 37252 ft 440 kts 32°
2026-05-04 23:47 -20.05678 -43.64460 37254 ft 439 kts 31°
2026-05-04 23:47 -20.00801 -43.60541 37251 ft 440 kts 32°
2026-05-04 23:48 -19.95923 -43.56621 37250 ft 440 kts 32°
2026-05-04 23:48 -19.91043 -43.52706 37237 ft 440 kts 31°
2026-05-04 23:49 -19.86161 -43.48789 37240 ft 439 kts 31°
2026-05-04 23:49 -19.81282 -43.44881 37241 ft 439 kts 31°
2026-05-04 23:50 -19.76399 -43.40970 37247 ft 440 kts 31°
2026-05-04 23:50 -19.71515 -43.37062 37245 ft 439 kts 31°
2026-05-04 23:51 -19.66631 -43.33158 37238 ft 440 kts 32°
2026-05-04 23:51 -19.61747 -43.29255 37242 ft 440 kts 31°
2026-05-04 23:52 -19.56858 -43.25353 37240 ft 440 kts 31°
2026-05-04 23:52 -19.51971 -43.21454 37233 ft 439 kts 32°
2026-05-04 23:53 -19.47084 -43.17561 37233 ft 439 kts 32°
2026-05-04 23:53 -19.42193 -43.13663 37234 ft 440 kts 31°
2026-05-04 23:54 -19.37261 -43.09740 37223 ft 440 kts 31°
2026-05-04 23:54 -19.32380 -43.05859 37235 ft 438 kts 31°
2026-05-04 23:55 -19.27499 -43.01980 37232 ft 439 kts 31°
2026-05-04 23:56 -19.20174 -42.96166 37229 ft 438 kts 32°
2026-05-04 23:56 -19.15312 -42.92311 37231 ft 436 kts 32°
2026-05-04 23:57 -19.10455 -42.88461 37229 ft 436 kts 32°
2026-05-04 23:57 -19.05592 -42.84611 37225 ft 436 kts 32°
2026-05-04 23:58 -19.00737 -42.80769 37229 ft 436 kts 32°
2026-05-04 23:58 -18.95878 -42.76929 37225 ft 436 kts 32°
2026-05-04 23:59 -18.91018 -42.73087 37224 ft 436 kts 32°
2026-05-04 23:59 -18.86158 -42.69252 37229 ft 436 kts 32°
2026-05-05 00:00 -18.81303 -42.65420 37222 ft 436 kts 32°
2026-05-05 00:00 -18.76445 -42.61591 37222 ft 435 kts 32°
2026-05-05 00:01 -18.71561 -42.57744 37233 ft 435 kts 32°
2026-05-05 00:01 -18.66709 -42.53925 37220 ft 435 kts 32°
2026-05-05 00:02 -18.62679 -42.50754 37221 ft 434 kts 32°
2026-05-05 00:02 -18.57018 -42.46305 37220 ft 434 kts 32°
2026-05-05 00:03 -18.52994 -42.43142 37217 ft 434 kts 32°
2026-05-05 00:03 -18.48163 -42.39352 37209 ft 433 kts 32°
2026-05-05 00:04 -18.43334 -42.35564 37216 ft 432 kts 32°
2026-05-05 00:04 -18.38514 -42.31786 37217 ft 432 kts 32°
2026-05-05 00:05 -18.33697 -42.28013 37215 ft 432 kts 32°
2026-05-05 00:05 -18.28849 -42.24218 37216 ft 431 kts 32°
2026-05-05 00:06 -18.24032 -42.20450 37217 ft 431 kts 32°
2026-05-05 00:06 -18.19219 -42.16688 37216 ft 431 kts 32°
2026-05-05 00:07 -18.14415 -42.12935 37210 ft 430 kts 32°
2026-05-05 00:07 -18.09623 -42.09197 37215 ft 429 kts 32°
2026-05-05 00:08 -18.04836 -42.05461 37219 ft 429 kts 32°
2026-05-05 00:08 -18.00050 -42.01732 37221 ft 429 kts 32°
2026-05-05 00:09 -17.95264 -41.98003 37221 ft 428 kts 32°
2026-05-05 00:09 -17.90479 -41.94279 37225 ft 428 kts 32°
2026-05-05 00:10 -17.85688 -41.90554 37229 ft 428 kts 32°
2026-05-05 00:10 -17.80901 -41.86832 37231 ft 428 kts 32°
2026-05-05 00:11 -17.76120 -41.83119 37229 ft 428 kts 32°
2026-05-05 00:11 -17.71339 -41.79406 37234 ft 427 kts 32°
2026-05-05 00:12 -17.66559 -41.75700 37232 ft 427 kts 32°
2026-05-05 00:12 -17.61751 -41.71971 37237 ft 427 kts 32°
2026-05-05 00:13 -17.56974 -41.68273 37234 ft 427 kts 32°
2026-05-05 00:13 -17.52201 -41.64575 37232 ft 426 kts 32°
2026-05-05 00:14 -17.47435 -41.60890 37238 ft 426 kts 32°
2026-05-05 00:14 -17.42666 -41.57203 37234 ft 427 kts 32°
2026-05-05 00:15 -17.37888 -41.53512 37233 ft 427 kts 32°
2026-05-05 00:15 -17.33109 -41.49822 37231 ft 427 kts 32°
2026-05-05 00:16 -17.28334 -41.46137 37235 ft 426 kts 32°
2026-05-05 00:16 -17.23559 -41.42456 37233 ft 426 kts 31°
2026-05-05 00:17 -17.18781 -41.38773 37231 ft 426 kts 32°
2026-05-05 00:17 -17.14006 -41.35098 37229 ft 426 kts 31°
2026-05-05 00:18 -17.09384 -41.31215 37231 ft 431 kts 42°
2026-05-05 00:18 -17.05408 -41.26514 37229 ft 432 kts 46°
2026-05-05 00:19 -17.01384 -41.21861 37240 ft 431 kts 44°
2026-05-05 00:19 -16.97369 -41.17199 37244 ft 432 kts 45°
2026-05-05 00:20 -16.93353 -41.12535 37231 ft 431 kts 44°
2026-05-05 00:20 -16.89312 -41.07856 37222 ft 431 kts 44°
2026-05-05 00:21 -16.85301 -41.03205 37222 ft 430 kts 44°
2026-05-05 00:21 -16.81297 -40.98573 37221 ft 429 kts 44°
2026-05-05 00:22 -16.77301 -40.93948 37218 ft 429 kts 44°
2026-05-05 00:22 -16.73301 -40.89325 37227 ft 429 kts 44°
2026-05-05 00:23 -16.69304 -40.84706 37231 ft 429 kts 44°
2026-05-05 00:23 -16.65300 -40.80085 37228 ft 429 kts 44°
2026-05-05 00:24 -16.61297 -40.75466 37212 ft 429 kts 44°
2026-05-05 00:24 -16.57289 -40.70844 37225 ft 429 kts 44°
2026-05-05 00:25 -16.53283 -40.66229 37222 ft 429 kts 44°
2026-05-05 00:25 -16.49279 -40.61618 37214 ft 429 kts 44°
2026-05-05 00:26 -16.45272 -40.57008 37214 ft 429 kts 44°
2026-05-05 00:26 -16.41266 -40.52401 37218 ft 429 kts 44°
2026-05-05 00:27 -16.37258 -40.47795 37217 ft 429 kts 44°
2026-05-05 00:27 -16.33243 -40.43186 37218 ft 430 kts 44°
2026-05-05 00:28 -16.29197 -40.38540 37209 ft 430 kts 44°
2026-05-05 00:28 -16.27187 -40.36235 37085 ft 432 kts 45°
2026-05-05 00:28 -16.25159 -40.33911 36551 ft 432 kts 44°
2026-05-05 00:28 -16.23148 -40.31605 35973 ft 428 kts 44°
2026-05-05 00:29 -16.21158 -40.29321 35408 ft 424 kts 44°
2026-05-05 00:29 -16.19181 -40.27057 34859 ft 420 kts 45°
2026-05-05 00:29 -16.17224 -40.24819 34309 ft 417 kts 45°
2026-05-05 00:29 -16.15285 -40.22598 33714 ft 412 kts 45°
2026-05-05 00:30 -16.13372 -40.20407 33180 ft 406 kts 45°
2026-05-05 00:30 -16.11487 -40.18250 32652 ft 401 kts 45°
2026-05-05 00:30 -16.09621 -40.16117 32122 ft 396 kts 45°
2026-05-05 00:30 -16.07781 -40.14014 31607 ft 392 kts 45°
2026-05-05 00:31 -16.05958 -40.11930 31091 ft 388 kts 45°
2026-05-05 00:31 -16.04152 -40.09866 30581 ft 384 kts 45°
2026-05-05 00:31 -16.02363 -40.07822 30046 ft 381 kts 45°
2026-05-05 00:31 -16.00591 -40.05799 29526 ft 375 kts 45°
2026-05-05 00:32 -15.98849 -40.03808 29032 ft 370 kts 45°
2026-05-05 00:32 -15.97127 -40.01844 28550 ft 365 kts 45°
2026-05-05 00:32 -15.95426 -39.99903 28073 ft 361 kts 45°
2026-05-05 00:32 -15.93756 -39.97996 27600 ft 353 kts 45°
2026-05-05 00:33 -15.92105 -39.96115 27133 ft 352 kts 45°
2026-05-05 00:33 -15.90463 -39.94243 26671 ft 350 kts 45°
2026-05-05 00:33 -15.88827 -39.92378 26210 ft 348 kts 45°
2026-05-05 00:33 -15.87201 -39.90525 25752 ft 347 kts 45°
2026-05-05 00:34 -15.85580 -39.88678 25294 ft 345 kts 45°
2026-05-05 00:34 -15.83970 -39.86843 24841 ft 343 kts 45°
2026-05-05 00:34 -15.82362 -39.85014 24389 ft 342 kts 46°
2026-05-05 00:34 -15.81282 -39.83784 24085 ft 341 kts 46°
2026-05-05 00:35 -15.79174 -39.81384 23456 ft 337 kts 46°
2026-05-05 00:35 -15.78112 -39.80175 23139 ft 334 kts 46°
2026-05-05 00:35 -15.76561 -39.78411 22700 ft 329 kts 46°
2026-05-05 00:35 -15.75027 -39.76667 22268 ft 325 kts 46°
2026-05-05 00:36 -15.73515 -39.74947 21841 ft 321 kts 46°
2026-05-05 00:36 -15.72015 -39.73242 21418 ft 318 kts 46°
2026-05-05 00:36 -15.70530 -39.71554 21000 ft 316 kts 47°
2026-05-05 00:36 -15.69056 -39.69879 20586 ft 313 kts 47°
2026-05-05 00:37 -15.67589 -39.68212 20176 ft 312 kts 47°
2026-05-05 00:37 -15.66132 -39.66557 19763 ft 310 kts 47°
2026-05-05 00:37 -15.64680 -39.64909 19356 ft 309 kts 48°
2026-05-05 00:37 -15.63236 -39.63270 18949 ft 307 kts 48°
2026-05-05 00:38 -15.61797 -39.61637 18543 ft 306 kts 48°
2026-05-05 00:38 -15.60366 -39.60012 18105 ft 304 kts 49°
2026-05-05 00:38 -15.58947 -39.58402 17700 ft 301 kts 49°
2026-05-05 00:38 -15.57541 -39.56808 17303 ft 298 kts 49°
2026-05-05 00:39 -15.56150 -39.55230 16912 ft 295 kts 49°
2026-05-05 00:39 -15.54769 -39.53665 16519 ft 292 kts 49°
2026-05-05 00:39 -15.53385 -39.52095 16130 ft 290 kts 49°
2026-05-05 00:39 -15.52027 -39.50557 15749 ft 288 kts 50°
2026-05-05 00:40 -15.50697 -39.49049 15377 ft 286 kts 50°
2026-05-05 00:40 -15.49344 -39.47517 14994 ft 284 kts 50°
2026-05-05 00:40 -15.48018 -39.46014 14619 ft 282 kts 50°
2026-05-05 00:40 -15.46696 -39.44517 14251 ft 280 kts 50°
2026-05-05 00:41 -15.45384 -39.43032 13864 ft 278 kts 50°
2026-05-05 00:41 -15.44082 -39.41559 13480 ft 276 kts 50°
2026-05-05 00:41 -15.42794 -39.40100 13110 ft 273 kts 51°
2026-05-05 00:41 -15.41519 -39.38658 12749 ft 270 kts 50°
2026-05-05 00:42 -15.40255 -39.37228 12393 ft 268 kts 50°
2026-05-05 00:42 -15.39000 -39.35809 12036 ft 266 kts 50°
2026-05-05 00:42 -15.37754 -39.34400 11692 ft 264 kts 51°
2026-05-05 00:42 -15.36516 -39.33000 11344 ft 263 kts 50°
2026-05-05 00:43 -15.35350 -39.31681 11016 ft 262 kts 50°
2026-05-05 00:43 -15.34121 -39.30293 10664 ft 260 kts 50°
2026-05-05 00:43 -15.32900 -39.28912 10323 ft 260 kts 50°
2026-05-05 00:43 -15.31680 -39.27534 9975 ft 259 kts 50°
2026-05-05 00:44 -15.30463 -39.26161 9615 ft 258 kts 50°
2026-05-05 00:44 -15.29254 -39.24794 9270 ft 256 kts 50°
2026-05-05 00:44 -15.28052 -39.23437 8932 ft 255 kts 51°
2026-05-05 00:44 -15.26855 -39.22086 8599 ft 254 kts 51°
2026-05-05 00:45 -15.25654 -39.20729 8154 ft 258 kts 50°
2026-05-05 00:45 -15.24446 -39.19367 7843 ft 256 kts 51°
2026-05-05 00:45 -15.23246 -39.18014 7516 ft 255 kts 51°
2026-05-05 00:45 -15.22048 -39.16661 7174 ft 254 kts 51°
2026-05-05 00:46 -15.20851 -39.15311 6842 ft 255 kts 51°
2026-05-05 00:46 -15.19650 -39.13957 6496 ft 256 kts 50°
2026-05-05 00:46 -15.18450 -39.12603 6146 ft 255 kts 51°
2026-05-05 00:46 -15.17249 -39.11251 5807 ft 255 kts 51°
2026-05-05 00:47 -15.16053 -39.09901 5469 ft 255 kts 51°
2026-05-05 00:47 -15.14886 -39.08535 5135 ft 248 kts 58°
2026-05-05 00:47 -15.14246 -39.06934 4800 ft 232 kts 84°
2026-05-05 00:47 -15.14229 -39.05327 4495 ft 218 kts 104°
2026-05-05 00:48 -15.14726 -39.03900 4128 ft 207 kts 124°
2026-05-05 00:48 -15.15627 -39.02777 3649 ft 201 kts 142°
2026-05-05 00:48 -15.16798 -39.02038 3168 ft 196 kts 159°
2026-05-05 00:48 -15.18107 -39.01730 2780 ft 190 kts 174°
2026-05-05 00:49 -15.19377 -39.01611 2565 ft 176 kts 172°
2026-05-05 00:49 -15.20541 -39.01475 2425 ft 163 kts 173°
2026-05-05 00:49 -15.21631 -39.01357 2293 ft 153 kts 173°
2026-05-05 00:49 -15.22665 -39.01247 2162 ft 146 kts 173°
2026-05-05 00:50 -15.23624 -39.01145 2043 ft 130 kts 172°
2026-05-05 00:50 -15.24472 -39.01051 1937 ft 113 kts 174°
2026-05-05 00:50 -15.25177 -39.00975 1847 ft 93 kts 175°
2026-05-05 00:50 -15.25802 -39.00907 1764 ft 90 kts 175°
2026-05-05 00:51 -15.26423 -39.00841 1655 ft 91 kts 175°
2026-05-05 00:51 -15.27072 -39.00772 1463 ft 97 kts 175°
2026-05-05 00:51 -15.27743 -39.00700 1262 ft 96 kts 174°
2026-05-05 00:51 -15.28394 -39.00629 1067 ft 93 kts 174°
2026-05-05 00:52 -15.29064 -39.00561 867 ft 103 kts 175°
2026-05-05 00:52 -15.29828 -39.00473 559 ft 113 kts 175°
2026-05-05 00:52 -15.30590 -39.00382 532 ft 109 kts 176°
2026-05-05 00:52 -15.31319 -39.00301 494 ft 100 kts 176°
2026-05-05 00:53 -15.32005 -39.00231 444 ft 99 kts 175°
2026-05-05 00:53 -15.32692 -39.00158 478 ft 96 kts 174°
2026-05-05 00:53 -15.33353 -39.00077 386 ft 97 kts 177°
2026-05-05 00:53 -15.34026 -39.00010 196 ft 98 kts 176°
2026-05-05 00:54 -15.34692 -38.99945 46 ft 88 kts 176°
2026-05-05 00:54 -15.35214 -38.99891 27 ft 62 kts 176°
2026-05-05 00:54 -15.35506 -38.99861 27 ft 29 kts 172°
2026-05-05 00:54 -15.35680 -38.99841 27 ft 16 kts 174°
2026-05-05 00:55 -15.35738 -38.99797 26 ft 9 kts 80°
2026-05-05 00:55 -15.35733 -38.99754 26 ft 0 kts 84°
2026-05-05 00:55 -15.35730 -38.99729 26 ft 8 kts 84°
2026-05-05 00:56 -15.35724 -38.99663 27 ft 10 kts 83°
2026-05-05 00:56 -15.35719 -38.99629 27 ft 0 kts 57°
2026-05-05 00:56 -15.35704 -38.99629 27 ft 6 kts 349°
2026-05-05 00:56 -15.35697 -38.99630 27 ft 0 kts 349°